Lid_Strength_Index
-0 -0 -0 0 0 1 1 0 0 1 1 0 0 -0 0 0 -0 1 1 1 0 0 0 0 -0 -0 2 6 5 1 -1 -1 1 4 6 5 6 7 9 10 10 11 10 10 10 9 10
0 0 0 0 1 1 1 1 1 1 1 1 0 0 1 -0 -0 0 0 1 1 1 0 -0 -0 -0 4 8 4 1 1 2 3 4 5 5 6 6 8 9 11 9 10 9 10 10 10
0 0 0 1 1 1 1 1 1 1 1 1 0 1 1 -0 0 1 1 1 1 1 0 0 -0 1 4 5 3 2 3 3 3 4 6 5 5 7 7 9 9 9 11 10 10 10 10
0 0 0 1 1 1 1 1 1 1 1 1 0 1 1 1 1 1 1 1 1 1 1 1 0 2 6 2 2 2 4 4 4 4 5 5 5 6 8 8 8 10 11 14 11 9 9
-0 0 0 1 1 1 1 2 2 1 1 1 0 1 1 2 2 2 2 2 2 1 1 1 3 4 7 2 3 3 5 6 4 5 5 4 6 8 9 11 13 11 14 13 11 9 9
-0 0 0 1 1 1 1 2 2 1 1 1 1 1 1 2 2 2 2 2 1 2 2 1 2 6 5 6 3 5 5 4 5 5 6 7 9 10 11 12 15 14 14 13 13 11 11
-0 -0 0 0 1 1 1 1 2 2 1 1 1 1 1 2 2 3 3 5 6 6 5 7 6 6 5 3 5 6 5 5 6 7 10 8 10 12 13 12 11 12 13 14 13 11 12
-0 0 0 0 0 1 1 1 1 2 1 1 2 1 2 2 2 3 5 6 6 6 8 4 4 4 3 3 6 6 4 7 7 10 9 10 12 11 9 10 11 12 13 14 12 11 11
1 1 1 0 0 0 1 1 1 2 2 2 2 2 2 2 2 4 6 6 3 4 8 6 4 5 5 4 7 7 6 7 9 10 11 12 11 9 9 10 11 11 12 13 13 12 11
1 1 1 1 0 0 1 2 1 2 1 2 2 2 3 3 5 5 8 5 3 5 11 9 7 6 5 5 8 6 6 7 8 11 11 11 9 10 11 11 11 13 10 11 12 14 15
1 1 2 1 1 1 2 2 2 2 2 2 2 2 3 3 5 5 4 2 3 6 17 9 8 5 6 7 7 7 6 7 10 11 11 12 11 10 11 11 10 11 10 11 12 13 14
1 1 2 2 2 2 3 3 2 2 3 2 2 2 3 4 6 4 2 5 6 12 18 10 7 8 8 8 8 8 7 6 8 9 10 10 9 10 10 9 9 9 10 11 12 13 17
1 1 2 2 2 2 3 2 2 3 4 2 2 2 3 3 4 2 4 7 12 16 9 11 10 9 9 10 8 9 9 10 12 13 13 10 10 9 8 11 10 10 13 17 18 18 19
1 2 2 2 2 2 2 2 2 3 4 2 3 3 3 4 2 3 7 10 15 12 11 9 9 9 11 9 9 9 10 12 10 11 12 14 15 10 9 11 12 12 13 17 20 20 18
2 2 2 2 2 2 2 2 3 3 4 2 3 4 3 2 3 5 8 14 14 11 9 9 9 11 12 10 9 10 12 12 12 11 12 14 14 10 10 10 10 12 14 11 15 16 18
3 2 2 2 3 2 2 2 3 3 3 3 3 3 5 3 4 6 10 12 10 8 8 8 11 10 13 11 11 11 12 10 11 10 10 11 14 12 10 10 10 12 10 15 15 19 19
3 2 3 3 3 2 2 3 3 3 2 3 5 7 6 3 6 8 12 12 9 7 7 9 10 11 11 11 11 12 12 10 9 9 10 12 13 13 11 12 13 12 13 13 13 15 19
3 3 3 3 3 3 3 3 3 4 3 3 7 9 5 7 9 11 11 9 8 8 8 8 8 9 11 10 12 12 12 10 8 9 12 11 14 16 14 11 10 11 12 13 17 16 17
3 4 3 3 3 3 3 4 3 4 2 4 7 7 4 7 12 12 10 9 8 9 9 9 10 9 9 11 13 11 11 8 9 9 11 11 14 17 14 12 11 12 12 12 14 15 16
3 4 3 3 3 3 3 4 3 3 2 4 7 11 8 7 9 10 11 11 10 8 8 8 9 8 10 11 10 12 11 9 9 10 7 9 13 14 16 15 13 14 14 12 13 17 16
3 4 3 3 3 3 3 4 3 3 3 4 7 9 7 11 10 11 11 10 10 11 8 8 9 9 10 13 13 13 11 10 10 8 9 10 13 13 13 13 13 14 14 13 14 14 16
4 4 4 3 3 4 4 4 3 3 3 5 8 8 9 10 8 9 11 10 10 10 9 10 10 10 10 11 11 12 10 12 13 9 10 10 14 14 14 13 13 14 13 14 14 14 14
4 3 3 3 4 4 4 4 3 3 4 6 6 5 7 9 9 10 11 9 9 8 8 8 8 10 11 10 9 9 9 9 9 10 11 12 14 16 17 15 16 19 14 13 13 13 13
3 3 3 3 4 4 4 5 4 3 4 3 5 6 9 12 11 10 9 8 9 9 9 8 8 10 9 9 10 10 11 10 9 9 9 14 15 18 20 19 23 15 13 12 12 12 11
3 3 3 3 4 5 5 5 4 3 4 4 5 7 9 14 10 9 9 9 8 8 9 9 7 8 8 11 14 14 16 15 13 11 12 12 16 18 21 20 17 14 12 12 13 13 10
3 4 3 4 4 4 4 5 5 4 5 3 4 6 7 10 10 7 9 9 10 11 10 10 7 8 10 15 17 19 18 15 15 13 11 12 15 17 21 23 24 15 12 10 11 15 10
4 3 4 4 4 4 4 4 4 3 3 3 4 5 6 9 8 8 9 9 9 10 12 10 9 10 11 18 21 20 18 15 16 17 16 17 19 20 24 24 18 13 10 10 15 15 10
4 4 4 3 4 4 4 4 4 4 4 2 4 4 5 8 7 6 6 8 8 10 12 9 11 11 15 17 19 19 20 16 15 14 14 15 17 17 20 24 20 11 10 13 11 11 10
4 4 4 3 4 4 5 5 5 4 4 2 3 3 4 6 7 6 6 5 6 7 8 10 10 10 11 15 19 19 18 14 16 17 12 15 14 16 15 15 12 11 11 10 10 10 10